owner,sensor,date,latitude,longitude,vertical_datum,wind_speed,wind_to_direction,wind_speed_of_gust,qcFlag 
DISL,ioos:station:DISL:DISL:1,2008-05-01T00:00:00Z,30.2513,-88.0778,9.68,4.35,132.0,-9999.0,'1111122,1111122,1111122' 
DISL,ioos:station:DISL:DISL:1,2008-05-01T00:30:00Z,30.2513,-88.0778,9.68,3.76,129.9,-9999.0,'1111122,1111122,1111122' 
DISL,ioos:station:DISL:DISL:1,2008-05-01T01:00:00Z,30.2513,-88.0778,9.68,5.19,127.4,-9999.0,'1111122,1111122,1111122' 
DISL,ioos:station:DISL:DISL:1,2008-05-01T01:30:00Z,30.2513,-88.0778,9.68,5.21,130.6,-9999.0,'1111122,1111122,1111122' 
DISL,ioos:station:DISL:DISL:1,2008-05-01T02:00:00Z,30.2513,-88.0778,9.68,5.38,139.5,-9999.0,'1111122,1111122,1111122' 
DISL,ioos:station:DISL:DISL:1,2008-05-01T02:30:00Z,30.2513,-88.0778,9.68,5.64,148.2,-9999.0,'1111122,1111122,1111122' 
DISL,ioos:station:DISL:DISL:1,2008-05-01T03:00:00Z,30.2513,-88.0778,9.68,6.13,141.2,-9999.0,'1111122,1111122,1111122' 
DISL,ioos:station:DISL:DISL:1,2008-05-01T03:30:00Z,30.2513,-88.0778,9.68,5.9,140.9,-9999.0,'1111122,1111122,1111122' 
DISL,ioos:station:DISL:DISL:1,2008-05-01T04:00:00Z,30.2513,-88.0778,9.68,5.6,150.0,-9999.0,'1111122,1111122,1111122' 
DISL,ioos:station:DISL:DISL:1,2008-05-01T04:30:00Z,30.2513,-88.0778,9.68,6.13,152.2,-9999.0,'1111122,1111122,1111122' 
DISL,ioos:station:DISL:DISL:1,2008-05-01T05:00:00Z,30.2513,-88.0778,9.68,6.18,152.4,-9999.0,'1111122,1111122,1111122' 
DISL,ioos:station:DISL:DISL:1,2008-05-01T05:30:00Z,30.2513,-88.0778,9.68,5.67,140.3,-9999.0,'1111122,1111122,1111122' 
DISL,ioos:station:DISL:DISL:1,2008-05-01T06:00:00Z,30.2513,-88.0778,9.68,5.63,136.7,-9999.0,'1111122,1111122,1111122' 
DISL,ioos:station:DISL:DISL:1,2008-05-01T06:30:00Z,30.2513,-88.0778,9.68,5.42,155.2,-9999.0,'1111122,1111122,1111122' 
DISL,ioos:station:DISL:DISL:1,2008-05-01T07:00:00Z,30.2513,-88.0778,9.68,5.29,152.3,-9999.0,'1111122,1111122,1111122' 
DISL,ioos:station:DISL:DISL:1,2008-05-01T07:30:00Z,30.2513,-88.0778,9.68,5.19,149.8,-9999.0,'1111122,1111122,1111122' 
DISL,ioos:station:DISL:DISL:1,2008-05-01T08:00:00Z,30.2513,-88.0778,9.68,5.71,158.4,-9999.0,'1111122,1111122,1111122' 
DISL,ioos:station:DISL:DISL:1,2008-05-01T08:30:00Z,30.2513,-88.0778,9.68,5.48,148.0,-9999.0,'1111122,1111122,1111122' 
DISL,ioos:station:DISL:DISL:1,2008-05-01T09:00:00Z,30.2513,-88.0778,9.68,5.54,158.0,-9999.0,'1111122,1111122,1111122' 
DISL,ioos:station:DISL:DISL:1,2008-05-01T09:30:00Z,30.2513,-88.0778,9.68,5.79,149.9,-9999.0,'1111122,1111122,1111122' 
DISL,ioos:station:DISL:DISL:1,2008-05-01T10:00:00Z,30.2513,-88.0778,9.68,5.91,155.5,-9999.0,'1111122,1111122,1111122' 
DISL,ioos:station:DISL:DISL:1,2008-05-01T10:30:00Z,30.2513,-88.0778,9.68,5.99,152.9,-9999.0,'1111122,1111122,1111122' 
DISL,ioos:station:DISL:DISL:1,2008-05-01T11:00:00Z,30.2513,-88.0778,9.68,5.96,164.0,-9999.0,'1111122,1111122,1111122' 
DISL,ioos:station:DISL:DISL:1,2008-05-01T11:30:00Z,30.2513,-88.0778,9.68,5.85,157.2,-9999.0,'1111122,1111122,1111122' 
DISL,ioos:station:DISL:DISL:1,2008-05-01T12:00:00Z,30.2513,-88.0778,9.68,5.61,158.9,-9999.0,'1111122,1111122,1111122' 
DISL,ioos:station:DISL:DISL:1,2008-05-01T12:30:00Z,30.2513,-88.0778,9.68,6.15,157.2,-9999.0,'1111122,1111122,1111122' 
DISL,ioos:station:DISL:DISL:1,2008-05-01T13:00:00Z,30.2513,-88.0778,9.68,5.39,149.0,-9999.0,'1111122,1111122,1111122' 
DISL,ioos:station:DISL:DISL:1,2008-05-01T13:30:00Z,30.2513,-88.0778,9.68,5.57,146.6,-9999.0,'1111122,1111122,1111122' 
DISL,ioos:station:DISL:DISL:1,2008-05-01T14:00:00Z,30.2513,-88.0778,9.68,5.0,156.0,-9999.0,'1111122,1111122,1111122' 
DISL,ioos:station:DISL:DISL:1,2008-05-01T14:30:00Z,30.2513,-88.0778,9.68,7.25,142.3,-9999.0,'1111122,1111122,1111122' 
DISL,ioos:station:DISL:DISL:1,2008-05-01T15:00:00Z,30.2513,-88.0778,9.68,6.98,143.4,-9999.0,'1111122,1111122,1111122' 
DISL,ioos:station:DISL:DISL:1,2008-05-01T15:30:00Z,30.2513,-88.0778,9.68,6.71,138.7,-9999.0,'1111122,1111122,1111122' 
DISL,ioos:station:DISL:DISL:1,2008-05-01T16:00:00Z,30.2513,-88.0778,9.68,7.46,142.5,-9999.0,'1111122,1111122,1111122' 
DISL,ioos:station:DISL:DISL:1,2008-05-01T16:30:00Z,30.2513,-88.0778,9.68,6.25,128.1,-9999.0,'1111122,1111122,1111122' 
DISL,ioos:station:DISL:DISL:1,2008-05-01T17:00:00Z,30.2513,-88.0778,9.68,6.4,130.6,-9999.0,'1111122,1111122,1111122' 
DISL,ioos:station:DISL:DISL:1,2008-05-01T17:30:00Z,30.2513,-88.0778,9.68,6.47,133.2,-9999.0,'1111122,1111122,1111122' 
DISL,ioos:station:DISL:DISL:1,2008-05-01T18:00:00Z,30.2513,-88.0778,9.68,6.29,129.4,-9999.0,'1111122,1111122,1111122' 
DISL,ioos:station:DISL:DISL:1,2008-05-01T18:30:00Z,30.2513,-88.0778,9.68,6.06,139.1,-9999.0,'1111122,1111122,1111122' 
DISL,ioos:station:DISL:DISL:1,2008-05-01T19:00:00Z,30.2513,-88.0778,9.68,7.17,135.8,-9999.0,'1111122,1111122,1111122' 
DISL,ioos:station:DISL:DISL:1,2008-05-01T19:30:00Z,30.2513,-88.0778,9.68,6.76,130.8,-9999.0,'1111122,1111122,1111122' 
DISL,ioos:station:DISL:DISL:1,2008-05-01T20:00:00Z,30.2513,-88.0778,9.68,6.18,127.5,-9999.0,'1111122,1111122,1111122' 
DISL,ioos:station:DISL:DISL:1,2008-05-01T20:30:00Z,30.2513,-88.0778,9.68,6.47,125.9,-9999.0,'1111122,1111122,1111122' 
DISL,ioos:station:DISL:DISL:1,2008-05-01T21:00:00Z,30.2513,-88.0778,9.68,7.36,134.7,-9999.0,'1111122,1111122,1111122' 
DISL,ioos:station:DISL:DISL:1,2008-05-01T21:30:00Z,30.2513,-88.0778,9.68,7.31,124.6,-9999.0,'1111122,1111122,1111122' 
DISL,ioos:station:DISL:DISL:1,2008-05-01T22:00:00Z,30.2513,-88.0778,9.68,7.77,132.2,-9999.0,'1111122,1111122,1111122' 
DISL,ioos:station:DISL:DISL:1,2008-05-01T22:30:00Z,30.2513,-88.0778,9.68,7.22,129.8,-9999.0,'1111122,1111122,1111122' 
DISL,ioos:station:DISL:DISL:1,2008-05-01T23:00:00Z,30.2513,-88.0778,9.68,7.55,130.2,-9999.0,'1111122,1111122,1111122' 
DISL,ioos:station:DISL:DISL:1,2008-05-01T23:30:00Z,30.2513,-88.0778,9.68,6.44,140.6,-9999.0,'1111122,1111122,1111122' 
DISL,ioos:station:DISL:DISL:1,2008-05-02T00:00:00Z,30.2513,-88.0778,9.68,7.97,128.9,-9999.0,'1111122,1111122,1111122' 
DISL,ioos:station:DISL:DISL:1,2008-05-02T00:30:00Z,30.2513,-88.0778,9.68,7.68,132.8,-9999.0,'1111122,1111122,1111122' 
DISL,ioos:station:DISL:DISL:1,2008-05-02T01:00:00Z,30.2513,-88.0778,9.68,8.61,130.0,-9999.0,'1111122,1111122,1111122' 
DISL,ioos:station:DISL:DISL:1,2008-05-02T01:30:00Z,30.2513,-88.0778,9.68,7.99,128.1,-9999.0,'1111122,1111122,1111122' 
DISL,ioos:station:DISL:DISL:1,2008-05-02T02:00:00Z,30.2513,-88.0778,9.68,7.65,138.9,-9999.0,'1111122,1111122,1111122' 
DISL,ioos:station:DISL:DISL:1,2008-05-02T02:30:00Z,30.2513,-88.0778,9.68,7.86,135.9,-9999.0,'1111122,1111122,1111122' 
DISL,ioos:station:DISL:DISL:1,2008-05-02T03:00:00Z,30.2513,-88.0778,9.68,8.46,139.3,-9999.0,'1111122,1111122,1111122' 
DISL,ioos:station:DISL:DISL:1,2008-05-02T03:30:00Z,30.2513,-88.0778,9.68,7.76,132.0,-9999.0,'1111122,1111122,1111122' 
DISL,ioos:station:DISL:DISL:1,2008-05-02T04:00:00Z,30.2513,-88.0778,9.68,8.53,131.6,-9999.0,'1111122,1111122,1111122' 
DISL,ioos:station:DISL:DISL:1,2008-05-02T04:30:00Z,30.2513,-88.0778,9.68,9.34,130.9,-9999.0,'1111122,1111122,1111122' 
DISL,ioos:station:DISL:DISL:1,2008-05-02T05:00:00Z,30.2513,-88.0778,9.68,9.39,138.0,-9999.0,'1111122,1111122,1111122' 
DISL,ioos:station:DISL:DISL:1,2008-05-02T05:30:00Z,30.2513,-88.0778,9.68,8.65,134.2,-9999.0,'1111122,1111122,1111122' 
DISL,ioos:station:DISL:DISL:1,2008-05-02T06:00:00Z,30.2513,-88.0778,9.68,9.38,133.8,-9999.0,'1111122,1111122,1111122' 
DISL,ioos:station:DISL:DISL:1,2008-05-02T06:30:00Z,30.2513,-88.0778,9.68,8.68,138.2,-9999.0,'1111122,1111122,1111122' 
DISL,ioos:station:DISL:DISL:1,2008-05-02T07:00:00Z,30.2513,-88.0778,9.68,7.71,135.2,-9999.0,'1111122,1111122,1111122' 
DISL,ioos:station:DISL:DISL:1,2008-05-02T07:30:00Z,30.2513,-88.0778,9.68,7.25,134.2,-9999.0,'1111122,1111122,1111122' 
DISL,ioos:station:DISL:DISL:1,2008-05-02T08:00:00Z,30.2513,-88.0778,9.68,5.65,153.7,-9999.0,'1111122,1111122,1111122' 
DISL,ioos:station:DISL:DISL:1,2008-05-02T08:30:00Z,30.2513,-88.0778,9.68,5.36,149.5,-9999.0,'1111122,1111122,1111122' 
DISL,ioos:station:DISL:DISL:1,2008-05-02T09:00:00Z,30.2513,-88.0778,9.68,5.28,144.7,-9999.0,'1111122,1111122,1111122' 
DISL,ioos:station:DISL:DISL:1,2008-05-02T09:30:00Z,30.2513,-88.0778,9.68,5.7,152.3,-9999.0,'1111122,1111122,1111122' 
DISL,ioos:station:DISL:DISL:1,2008-05-02T10:00:00Z,30.2513,-88.0778,9.68,4.98,148.5,-9999.0,'1111122,1111122,1111122' 
DISL,ioos:station:DISL:DISL:1,2008-05-02T10:30:00Z,30.2513,-88.0778,9.68,6.61,145.6,-9999.0,'1111122,1111122,1111122' 
DISL,ioos:station:DISL:DISL:1,2008-05-02T11:00:00Z,30.2513,-88.0778,9.68,6.7,135.8,-9999.0,'1111122,1111122,1111122' 
DISL,ioos:station:DISL:DISL:1,2008-05-02T11:30:00Z,30.2513,-88.0778,9.68,6.0,137.7,-9999.0,'1111122,1111122,1111122' 
DISL,ioos:station:DISL:DISL:1,2008-05-02T12:00:00Z,30.2513,-88.0778,9.68,6.04,128.3,-9999.0,'1111122,1111122,1111122' 
DISL,ioos:station:DISL:DISL:1,2008-05-02T12:30:00Z,30.2513,-88.0778,9.68,6.28,127.1,-9999.0,'1111122,1111122,1111122' 
DISL,ioos:station:DISL:DISL:1,2008-05-02T13:00:00Z,30.2513,-88.0778,9.68,5.83,132.9,-9999.0,'1111122,1111122,1111122' 
DISL,ioos:station:DISL:DISL:1,2008-05-02T13:30:00Z,30.2513,-88.0778,9.68,5.95,127.9,-9999.0,'1111122,1111122,1111122' 
DISL,ioos:station:DISL:DISL:1,2008-05-02T14:00:00Z,30.2513,-88.0778,9.68,6.06,135.6,-9999.0,'1111122,1111122,1111122' 
DISL,ioos:station:DISL:DISL:1,2008-05-02T14:30:00Z,30.2513,-88.0778,9.68,5.64,131.0,-9999.0,'1111122,1111122,1111122' 
DISL,ioos:station:DISL:DISL:1,2008-05-02T15:00:00Z,30.2513,-88.0778,9.68,6.19,124.0,-9999.0,'1111122,1111122,1111122' 
DISL,ioos:station:DISL:DISL:1,2008-05-02T15:30:00Z,30.2513,-88.0778,9.68,6.07,127.1,-9999.0,'1111122,1111122,1111122' 
DISL,ioos:station:DISL:DISL:1,2008-05-02T16:00:00Z,30.2513,-88.0778,9.68,6.7,125.4,-9999.0,'1111122,1111122,1111122' 
DISL,ioos:station:DISL:DISL:1,2008-05-02T16:30:00Z,30.2513,-88.0778,9.68,6.68,126.1,-9999.0,'1111122,1111122,1111122' 
DISL,ioos:station:DISL:DISL:1,2008-05-02T17:00:00Z,30.2513,-88.0778,9.68,7.28,119.4,-9999.0,'1111122,1111122,1111122' 
DISL,ioos:station:DISL:DISL:1,2008-05-02T17:30:00Z,30.2513,-88.0778,9.68,8.53,120.9,-9999.0,'1111122,1111122,1111122' 
DISL,ioos:station:DISL:DISL:1,2008-05-02T18:00:00Z,30.2513,-88.0778,9.68,8.99,123.6,-9999.0,'1111122,1111122,1111122' 
DISL,ioos:station:DISL:DISL:1,2008-05-02T18:30:00Z,30.2513,-88.0778,9.68,8.36,120.3,-9999.0,'1111122,1111122,1111122' 
DISL,ioos:station:DISL:DISL:1,2008-05-02T19:00:00Z,30.2513,-88.0778,9.68,7.84,128.4,-9999.0,'1111122,1111122,1111122' 
DISL,ioos:station:DISL:DISL:1,2008-05-02T19:30:00Z,30.2513,-88.0778,9.68,8.17,120.2,-9999.0,'1111122,1111122,1111122' 
DISL,ioos:station:DISL:DISL:1,2008-05-02T20:00:00Z,30.2513,-88.0778,9.68,8.19,131.5,-9999.0,'1111122,1111122,1111122' 
DISL,ioos:station:DISL:DISL:1,2008-05-02T20:30:00Z,30.2513,-88.0778,9.68,7.81,127.0,-9999.0,'1111122,1111122,1111122' 
DISL,ioos:station:DISL:DISL:1,2008-05-02T21:00:00Z,30.2513,-88.0778,9.68,6.87,127.8,-9999.0,'1111122,1111122,1111122' 
DISL,ioos:station:DISL:DISL:1,2008-05-02T21:30:00Z,30.2513,-88.0778,9.68,8.18,127.6,-9999.0,'1111122,1111122,1111122' 
DISL,ioos:station:DISL:DISL:1,2008-05-02T22:00:00Z,30.2513,-88.0778,9.68,8.13,122.1,-9999.0,'1111122,1111122,1111122' 
DISL,ioos:station:DISL:DISL:1,2008-05-02T22:30:00Z,30.2513,-88.0778,9.68,7.13,116.1,-9999.0,'1111122,1111122,1111122' 
DISL,ioos:station:DISL:DISL:1,2008-05-02T23:00:00Z,30.2513,-88.0778,9.68,7.66,120.1,-9999.0,'1111122,1111122,1111122' 
DISL,ioos:station:DISL:DISL:1,2008-05-02T23:30:00Z,30.2513,-88.0778,9.68,7.28,119.5,-9999.0,'1111122,1111122,1111122' 
DISL,ioos:station:DISL:DISL:1,2008-05-03T00:00:00Z,30.2513,-88.0778,9.68,7.28,123.2,-9999.0,'1111122,1111122,1111122' 
DISL,ioos:station:DISL:DISL:1,2008-05-03T00:30:00Z,30.2513,-88.0778,9.68,7.84,121.5,-9999.0,'1111122,1111122,1111122' 
DISL,ioos:station:DISL:DISL:1,2008-05-03T01:00:00Z,30.2513,-88.0778,9.68,8.62,120.5,-9999.0,'1111122,1111122,1111122' 
DISL,ioos:station:DISL:DISL:1,2008-05-03T01:30:00Z,30.2513,-88.0778,9.68,8.53,119.6,-9999.0,'1111122,1111122,1111122' 
DISL,ioos:station:DISL:DISL:1,2008-05-03T02:00:00Z,30.2513,-88.0778,9.68,8.76,119.9,-9999.0,'1111122,1111122,1111122' 
DISL,ioos:station:DISL:DISL:1,2008-05-03T02:30:00Z,30.2513,-88.0778,9.68,9.16,124.4,-9999.0,'1111122,1111122,1111122' 
DISL,ioos:station:DISL:DISL:1,2008-05-03T03:00:00Z,30.2513,-88.0778,9.68,8.69,133.3,-9999.0,'1111122,1111122,1111122' 
DISL,ioos:station:DISL:DISL:1,2008-05-03T03:30:00Z,30.2513,-88.0778,9.68,8.62,139.5,-9999.0,'1111122,1111122,1111122' 
DISL,ioos:station:DISL:DISL:1,2008-05-03T04:00:00Z,30.2513,-88.0778,9.68,8.08,135.0,-9999.0,'1111122,1111122,1111122' 
DISL,ioos:station:DISL:DISL:1,2008-05-03T04:30:00Z,30.2513,-88.0778,9.68,8.6,147.1,-9999.0,'1111122,1111122,1111122' 
DISL,ioos:station:DISL:DISL:1,2008-05-03T05:00:00Z,30.2513,-88.0778,9.68,7.94,143.8,-9999.0,'1111122,1111122,1111122' 
DISL,ioos:station:DISL:DISL:1,2008-05-03T05:30:00Z,30.2513,-88.0778,9.68,8.56,137.5,-9999.0,'1111122,1111122,1111122' 
DISL,ioos:station:DISL:DISL:1,2008-05-03T06:00:00Z,30.2513,-88.0778,9.68,9.41,139.3,-9999.0,'1111122,1111122,1111122' 
DISL,ioos:station:DISL:DISL:1,2008-05-03T06:30:00Z,30.2513,-88.0778,9.68,8.48,148.5,-9999.0,'1111122,1111122,1111122' 
DISL,ioos:station:DISL:DISL:1,2008-05-03T07:00:00Z,30.2513,-88.0778,9.68,6.93,155.7,-9999.0,'1111122,1111122,1111122' 
DISL,ioos:station:DISL:DISL:1,2008-05-03T07:30:00Z,30.2513,-88.0778,9.68,6.42,153.7,-9999.0,'1111122,1111122,1111122' 
DISL,ioos:station:DISL:DISL:1,2008-05-03T08:00:00Z,30.2513,-88.0778,9.68,6.99,157.3,-9999.0,'1111122,1111122,1111122' 
DISL,ioos:station:DISL:DISL:1,2008-05-03T08:30:00Z,30.2513,-88.0778,9.68,6.93,155.8,-9999.0,'1111122,1111122,1111122' 
DISL,ioos:station:DISL:DISL:1,2008-05-03T09:00:00Z,30.2513,-88.0778,9.68,6.18,154.6,-9999.0,'1111122,1111122,1111122' 
DISL,ioos:station:DISL:DISL:1,2008-05-03T09:30:00Z,30.2513,-88.0778,9.68,4.26,166.5,-9999.0,'1111122,1111122,1111122' 
DISL,ioos:station:DISL:DISL:1,2008-05-03T10:00:00Z,30.2513,-88.0778,9.68,3.25,151.0,-9999.0,'1111122,1111122,1111122' 
DISL,ioos:station:DISL:DISL:1,2008-05-03T10:30:00Z,30.2513,-88.0778,9.68,2.72,146.8,-9999.0,'1111122,1111122,1111122' 
DISL,ioos:station:DISL:DISL:1,2008-05-03T11:00:00Z,30.2513,-88.0778,9.68,3.21,148.0,-9999.0,'1111122,1111122,1111122' 
DISL,ioos:station:DISL:DISL:1,2008-05-03T11:30:00Z,30.2513,-88.0778,9.68,2.97,155.5,-9999.0,'1111122,1111122,1111122' 
DISL,ioos:station:DISL:DISL:1,2008-05-03T12:00:00Z,30.2513,-88.0778,9.68,2.98,153.7,-9999.0,'1111122,1111122,1111122' 
DISL,ioos:station:DISL:DISL:1,2008-05-03T12:30:00Z,30.2513,-88.0778,9.68,3.29,136.4,-9999.0,'1111122,1111122,1111122' 
DISL,ioos:station:DISL:DISL:1,2008-05-03T13:00:00Z,30.2513,-88.0778,9.68,3.85,141.9,-9999.0,'1111122,1111122,1111122' 
DISL,ioos:station:DISL:DISL:1,2008-05-03T13:30:00Z,30.2513,-88.0778,9.68,3.43,145.8,-9999.0,'1111122,1111122,1111122' 
DISL,ioos:station:DISL:DISL:1,2008-05-03T14:00:00Z,30.2513,-88.0778,9.68,3.71,144.2,-9999.0,'1111122,1111122,1111122' 
DISL,ioos:station:DISL:DISL:1,2008-05-03T14:30:00Z,30.2513,-88.0778,9.68,3.52,148.7,-9999.0,'1111122,1111122,1111122' 
DISL,ioos:station:DISL:DISL:1,2008-05-03T15:00:00Z,30.2513,-88.0778,9.68,3.75,136.7,-9999.0,'1111122,1111122,1111122' 
DISL,ioos:station:DISL:DISL:1,2008-05-03T15:30:00Z,30.2513,-88.0778,9.68,9.18,323.4,-9999.0,'1111122,1111122,1111122' 
DISL,ioos:station:DISL:DISL:1,2008-05-03T16:00:00Z,30.2513,-88.0778,9.68,0.88,269.9,-9999.0,'1111122,1111122,1111122' 
DISL,ioos:station:DISL:DISL:1,2008-05-03T16:30:00Z,30.2513,-88.0778,9.68,3.1,120.6,-9999.0,'1111122,1111122,1111122' 
DISL,ioos:station:DISL:DISL:1,2008-05-03T17:00:00Z,30.2513,-88.0778,9.68,4.16,138.1,-9999.0,'1111122,1111122,1111122' 
DISL,ioos:station:DISL:DISL:1,2008-05-03T17:30:00Z,30.2513,-88.0778,9.68,4.98,113.9,-9999.0,'1111122,1111122,1111122' 
DISL,ioos:station:DISL:DISL:1,2008-05-03T18:00:00Z,30.2513,-88.0778,9.68,4.0,145.2,-9999.0,'1111122,1111122,1111122' 
DISL,ioos:station:DISL:DISL:1,2008-05-03T18:30:00Z,30.2513,-88.0778,9.68,6.27,131.5,-9999.0,'1111122,1111122,1111122' 
DISL,ioos:station:DISL:DISL:1,2008-05-03T19:00:00Z,30.2513,-88.0778,9.68,4.32,142.1,-9999.0,'1111122,1111122,1111122' 
DISL,ioos:station:DISL:DISL:1,2008-05-03T19:30:00Z,30.2513,-88.0778,9.68,3.15,139.5,-9999.0,'1111122,1111122,1111122' 
DISL,ioos:station:DISL:DISL:1,2008-05-03T20:00:00Z,30.2513,-88.0778,9.68,2.24,201.4,-9999.0,'1111122,1111122,1111122' 
DISL,ioos:station:DISL:DISL:1,2008-05-03T20:30:00Z,30.2513,-88.0778,9.68,3.29,205.5,-9999.0,'1111122,1111122,1111122' 
DISL,ioos:station:DISL:DISL:1,2008-05-03T21:00:00Z,30.2513,-88.0778,9.68,2.8,234.8,-9999.0,'1111122,1111122,1111122' 
DISL,ioos:station:DISL:DISL:1,2008-05-03T21:30:00Z,30.2513,-88.0778,9.68,3.14,246.7,-9999.0,'1111122,1111122,1111122' 
DISL,ioos:station:DISL:DISL:1,2008-05-03T22:00:00Z,30.2513,-88.0778,9.68,3.76,273.1,-9999.0,'1111122,1111122,1111122' 
DISL,ioos:station:DISL:DISL:1,2008-05-03T22:30:00Z,30.2513,-88.0778,9.68,2.75,247.5,-9999.0,'1111122,1111122,1111122' 
DISL,ioos:station:DISL:DISL:1,2008-05-03T23:00:00Z,30.2513,-88.0778,9.68,2.79,242.2,-9999.0,'1111122,1111122,1111122' 
DISL,ioos:station:DISL:DISL:1,2008-05-03T23:30:00Z,30.2513,-88.0778,9.68,2.71,260.3,-9999.0,'1111122,1111122,1111122' 
DISL,ioos:station:DISL:DISL:1,2008-05-04T00:00:00Z,30.2513,-88.0778,9.68,1.47,249.7,-9999.0,'1111122,1111122,1111122' 
DISL,ioos:station:DISL:DISL:1,2008-05-04T00:30:00Z,30.2513,-88.0778,9.68,1.36,273.1,-9999.0,'1111122,1111122,1111122' 
DISL,ioos:station:DISL:DISL:1,2008-05-04T01:00:00Z,30.2513,-88.0778,9.68,1.48,236.2,-9999.0,'1111122,1111122,1111122' 
DISL,ioos:station:DISL:DISL:1,2008-05-04T01:30:00Z,30.2513,-88.0778,9.68,1.51,239.5,-9999.0,'1111122,1111122,1111122' 
DISL,ioos:station:DISL:DISL:1,2008-05-04T02:00:00Z,30.2513,-88.0778,9.68,1.42,231.5,-9999.0,'1111122,1111122,1111122' 
DISL,ioos:station:DISL:DISL:1,2008-05-04T02:30:00Z,30.2513,-88.0778,9.68,1.58,235.4,-9999.0,'1111122,1111122,1111122' 
DISL,ioos:station:DISL:DISL:1,2008-05-04T03:00:00Z,30.2513,-88.0778,9.68,1.99,226.9,-9999.0,'1111122,1111122,1111122' 
DISL,ioos:station:DISL:DISL:1,2008-05-04T03:30:00Z,30.2513,-88.0778,9.68,1.44,242.0,-9999.0,'1111122,1111122,1111122' 
DISL,ioos:station:DISL:DISL:1,2008-05-04T04:00:00Z,30.2513,-88.0778,9.68,1.76,247.5,-9999.0,'1111122,1111122,1111122' 
DISL,ioos:station:DISL:DISL:1,2008-05-04T04:30:00Z,30.2513,-88.0778,9.68,1.46,250.0,-9999.0,'1111122,1111122,1111122' 
DISL,ioos:station:DISL:DISL:1,2008-05-04T05:00:00Z,30.2513,-88.0778,9.68,1.79,229.6,-9999.0,'1111122,1111122,1111122' 
DISL,ioos:station:DISL:DISL:1,2008-05-04T05:30:00Z,30.2513,-88.0778,9.68,1.76,227.2,-9999.0,'1111122,1111122,1111122' 
DISL,ioos:station:DISL:DISL:1,2008-05-04T06:00:00Z,30.2513,-88.0778,9.68,1.59,225.0,-9999.0,'1111122,1111122,1111122' 
DISL,ioos:station:DISL:DISL:1,2008-05-04T06:30:00Z,30.2513,-88.0778,9.68,1.24,203.5,-9999.0,'1111122,1111122,1111122' 
DISL,ioos:station:DISL:DISL:1,2008-05-04T07:00:00Z,30.2513,-88.0778,9.68,1.08,233.7,-9999.0,'1111122,1111122,1111122' 
DISL,ioos:station:DISL:DISL:1,2008-05-04T07:30:00Z,30.2513,-88.0778,9.68,1.9,309.6,-9999.0,'1111122,1111122,1111122' 
DISL,ioos:station:DISL:DISL:1,2008-05-04T08:00:00Z,30.2513,-88.0778,9.68,0.92,244.9,-9999.0,'1111122,1111122,1111122' 
DISL,ioos:station:DISL:DISL:1,2008-05-04T08:30:00Z,30.2513,-88.0778,9.68,1.03,241.5,-9999.0,'1111122,1111122,1111122' 
DISL,ioos:station:DISL:DISL:1,2008-05-04T09:00:00Z,30.2513,-88.0778,9.68,0.82,283.4,-9999.0,'1111122,1111122,1111122' 
DISL,ioos:station:DISL:DISL:1,2008-05-04T09:30:00Z,30.2513,-88.0778,9.68,5.98,332.5,-9999.0,'1111122,1111122,1111122' 
DISL,ioos:station:DISL:DISL:1,2008-05-04T10:00:00Z,30.2513,-88.0778,9.68,6.17,352.4,-9999.0,'1111122,1111122,1111122' 
DISL,ioos:station:DISL:DISL:1,2008-05-04T10:30:00Z,30.2513,-88.0778,9.68,7.6,3.769,-9999.0,'1111122,1111122,1111122' 
DISL,ioos:station:DISL:DISL:1,2008-05-04T11:00:00Z,30.2513,-88.0778,9.68,6.74,2.955,-9999.0,'1111122,1111122,1111122' 
DISL,ioos:station:DISL:DISL:1,2008-05-04T11:30:00Z,30.2513,-88.0778,9.68,6.08,9.21,-9999.0,'1111122,1111122,1111122' 
DISL,ioos:station:DISL:DISL:1,2008-05-04T12:00:00Z,30.2513,-88.0778,9.68,7.23,4.356,-9999.0,'1111122,1111122,1111122' 
DISL,ioos:station:DISL:DISL:1,2008-05-04T12:30:00Z,30.2513,-88.0778,9.68,7.59,13.4,-9999.0,'1111122,1111122,1111122' 
DISL,ioos:station:DISL:DISL:1,2008-05-04T13:00:00Z,30.2513,-88.0778,9.68,7.09,12.06,-9999.0,'1111122,1111122,1111122' 
DISL,ioos:station:DISL:DISL:1,2008-05-04T13:30:00Z,30.2513,-88.0778,9.68,6.77,21.97,-9999.0,'1111122,1111122,1111122' 
DISL,ioos:station:DISL:DISL:1,2008-05-04T14:00:00Z,30.2513,-88.0778,9.68,6.14,13.1,-9999.0,'1111122,1111122,1111122' 
DISL,ioos:station:DISL:DISL:1,2008-05-04T14:30:00Z,30.2513,-88.0778,9.68,4.13,16.61,-9999.0,'1111122,1111122,1111122' 
DISL,ioos:station:DISL:DISL:1,2008-05-04T15:00:00Z,30.2513,-88.0778,9.68,3.32,12.33,-9999.0,'1111122,1111122,1111122' 
DISL,ioos:station:DISL:DISL:1,2008-05-04T15:30:00Z,30.2513,-88.0778,9.68,3.06,360.0,-9999.0,'1111122,1111122,1111122' 
DISL,ioos:station:DISL:DISL:1,2008-05-04T16:00:00Z,30.2513,-88.0778,9.68,2.18,5.898,-9999.0,'1111122,1111122,1111122' 
DISL,ioos:station:DISL:DISL:1,2008-05-04T16:30:00Z,30.2513,-88.0778,9.68,1.55,17.37,-9999.0,'1111122,1111122,1111122' 
DISL,ioos:station:DISL:DISL:1,2008-05-04T17:00:00Z,30.2513,-88.0778,9.68,1.31,23.04,-9999.0,'1111122,1111122,1111122' 
DISL,ioos:station:DISL:DISL:1,2008-05-04T17:30:00Z,30.2513,-88.0778,9.68,1.9,96.1,-9999.0,'1111122,1111122,1111122' 
DISL,ioos:station:DISL:DISL:1,2008-05-04T18:00:00Z,30.2513,-88.0778,9.68,2.45,179.6,-9999.0,'1111122,1111122,1111122' 
DISL,ioos:station:DISL:DISL:1,2008-05-04T18:30:00Z,30.2513,-88.0778,9.68,2.5,185.5,-9999.0,'1111122,1111122,1111122' 
DISL,ioos:station:DISL:DISL:1,2008-05-04T19:00:00Z,30.2513,-88.0778,9.68,2.76,207.6,-9999.0,'1111122,1111122,1111122' 
DISL,ioos:station:DISL:DISL:1,2008-05-04T19:30:00Z,30.2513,-88.0778,9.68,3.8,206.8,-9999.0,'1111122,1111122,1111122' 
DISL,ioos:station:DISL:DISL:1,2008-05-04T20:00:00Z,30.2513,-88.0778,9.68,3.71,210.9,-9999.0,'1111122,1111122,1111122' 
DISL,ioos:station:DISL:DISL:1,2008-05-04T20:30:00Z,30.2513,-88.0778,9.68,3.8,204.9,-9999.0,'1111122,1111122,1111122' 
DISL,ioos:station:DISL:DISL:1,2008-05-04T21:00:00Z,30.2513,-88.0778,9.68,3.43,210.7,-9999.0,'1111122,1111122,1111122' 
DISL,ioos:station:DISL:DISL:1,2008-05-04T21:30:00Z,30.2513,-88.0778,9.68,3.55,226.7,-9999.0,'1111122,1111122,1111122' 
DISL,ioos:station:DISL:DISL:1,2008-05-04T22:00:00Z,30.2513,-88.0778,9.68,2.96,222.0,-9999.0,'1111122,1111122,1111122' 
DISL,ioos:station:DISL:DISL:1,2008-05-04T22:30:00Z,30.2513,-88.0778,9.68,3.04,223.6,-9999.0,'1111122,1111122,1111122' 
DISL,ioos:station:DISL:DISL:1,2008-05-04T23:00:00Z,30.2513,-88.0778,9.68,3.28,225.6,-9999.0,'1111122,1111122,1111122' 
DISL,ioos:station:DISL:DISL:1,2008-05-04T23:30:00Z,30.2513,-88.0778,9.68,2.58,238.7,-9999.0,'1111122,1111122,1111122' 
DISL,ioos:station:DISL:DISL:1,2008-05-05T00:00:00Z,30.2513,-88.0778,9.68,1.99,232.6,-9999.0,'1111122,1111122,1111122' 
DISL,ioos:station:DISL:DISL:1,2008-05-05T00:30:00Z,30.2513,-88.0778,9.68,2.38,248.9,-9999.0,'1111122,1111122,1111122' 
DISL,ioos:station:DISL:DISL:1,2008-05-05T01:00:00Z,30.2513,-88.0778,9.68,1.96,260.0,-9999.0,'1111122,1111122,1111122' 
DISL,ioos:station:DISL:DISL:1,2008-05-05T01:30:00Z,30.2513,-88.0778,9.68,2.95,266.1,-9999.0,'1111122,1111122,1111122' 
DISL,ioos:station:DISL:DISL:1,2008-05-05T02:00:00Z,30.2513,-88.0778,9.68,2.3,247.4,-9999.0,'1111122,1111122,1111122' 
DISL,ioos:station:DISL:DISL:1,2008-05-05T02:30:00Z,30.2513,-88.0778,9.68,1.93,243.1,-9999.0,'1111122,1111122,1111122' 
DISL,ioos:station:DISL:DISL:1,2008-05-05T03:00:00Z,30.2513,-88.0778,9.68,1.97,255.0,-9999.0,'1111122,1111122,1111122' 
DISL,ioos:station:DISL:DISL:1,2008-05-05T03:30:00Z,30.2513,-88.0778,9.68,2.13,277.9,-9999.0,'1111122,1111122,1111122' 